Photometre #44[NE_1.6] Toulon AOT

File : 20190927_44.hum

27/09/2019,06:17:39,TEMP=16.1,BA=5.32,STAT.A=8.5,ExtBa=12.97
27/09/2019,06:21:11,TEMP=16.6,BA=5.28,STAT.A=8.5,ExtBa=12.90
27/09/2019,06:25:18,TEMP=17.0,BA=5.28,STAT.A=8.5,ExtBa=12.86
27/09/2019,06:30:16,TEMP=17.5,BA=5.32,STAT.A=8.5,ExtBa=12.86
27/09/2019,06:36:13,TEMP=18.1,BA=5.32,STAT.A=8.5,ExtBa=12.86
27/09/2019,06:43:34,TEMP=18.8,BA=5.44,STAT.A=8.5,ExtBa=12.87
27/09/2019,06:52:52,TEMP=19.7,BA=5.48,STAT.B=8.5,ExtBa=12.89
27/09/2019,06:57:19,TEMP=20.2,BA=5.48,STAT.A=8.5,ExtBa=12.86
27/09/2019,07:02:19,TEMP=20.8,BA=5.48,STAT.A=8.5,ExtBa=12.87
27/09/2019,07:07:57,TEMP=21.5,BA=5.48,STAT.A=8.5,ExtBa=12.90
27/09/2019,07:14:22,TEMP=22.1,BA=5.48,STAT.A=8.5,ExtBa=12.94
27/09/2019,07:21:45,TEMP=22.6,BA=5.52,STAT.C=8.5,ExtBa=13.01
27/09/2019,07:30:22,TEMP=23.1,BA=5.56,STAT.A=8.5,ExtBa=13.11
27/09/2019,07:40:33,TEMP=23.8,BA=5.56,STAT.A=8.5,ExtBa=13.26
27/09/2019,07:52:48,TEMP=24.3,BA=5.60,STAT.A=9.0,ExtBa=13.47
27/09/2019,08:07:57,TEMP=24.9,BA=5.60,STAT.A=9.0,ExtBa=13.62
27/09/2019,08:27:19,TEMP=25.5,BA=5.64,STAT.B=9.0,ExtBa=13.72
27/09/2019,08:29:28,TEMP=25.7,BA=5.64,STAT.F,ExtBa=13.70
27/09/2019,08:42:35,TEMP=25.8,BA=5.64,STAT.D=9.0,ExtBa=13.79
27/09/2019,08:57:35,TEMP=26.2,BA=5.64,STAT.D=9.0,ExtBa=13.85
27/09/2019,09:12:35,TEMP=26.0,BA=5.64,STAT.D=9.0,ExtBa=13.91
27/09/2019,09:27:36,TEMP=26.0,BA=5.64,STAT.F,ExtBa=13.96
27/09/2019,09:42:35,TEMP=26.5,BA=5.64,STAT.D=9.0,ExtBa=14.00
27/09/2019,09:57:35,TEMP=26.7,BA=5.64,STAT.D=9.0,ExtBa=14.05
27/09/2019,10:12:35,TEMP=26.8,BA=5.64,STAT.D=9.0,ExtBa=14.08
27/09/2019,10:27:37,TEMP=27.0,BA=5.64,STAT.F,ExtBa=14.14
27/09/2019,10:42:34,TEMP=27.0,BA=5.64,STAT.D=9.0,ExtBa=14.17
27/09/2019,10:57:35,TEMP=27.1,BA=5.64,STAT.D=9.0,ExtBa=14.19
27/09/2019,11:12:34,TEMP=27.2,BA=5.64,STAT.D=9.0,ExtBa=14.15
27/09/2019,11:27:35,TEMP=27.1,BA=5.64,STAT.F,ExtBa=14.52
27/09/2019,11:42:34,TEMP=27.0,BA=5.64,STAT.D=9.0,ExtBa=14.16
27/09/2019,11:57:33,TEMP=27.0,BA=5.64,STAT.D=9.0,ExtBa=14.15
27/09/2019,12:12:33,TEMP=27.0,BA=5.64,STAT.D=9.0,ExtBa=14.33
27/09/2019,12:27:35,TEMP=27.3,BA=5.64,STAT.F,ExtBa=14.27
27/09/2019,12:42:34,TEMP=27.1,BA=5.64,STAT.D=9.0,ExtBa=14.18
27/09/2019,12:57:35,TEMP=27.0,BA=5.64,STAT.D=9.0,ExtBa=14.13
27/09/2019,13:12:35,TEMP=26.9,BA=5.64,STAT.D=9.0,ExtBa=14.12
27/09/2019,13:27:36,TEMP=27.1,BA=5.64,STAT.F,ExtBa=14.11
27/09/2019,13:42:35,TEMP=27.2,BA=5.64,STAT.D=9.0,ExtBa=14.08
27/09/2019,13:57:35,TEMP=27.3,BA=5.64,STAT.D=9.0,ExtBa=14.07
27/09/2019,14:12:35,TEMP=27.2,BA=5.64,STAT.D=9.0,ExtBa=14.05
27/09/2019,14:27:36,TEMP=27.1,BA=5.64,STAT.F,ExtBa=14.03
27/09/2019,14:29:45,TEMP=27.4,BA=5.64,STAT.B=9.0,ExtBa=14.01
27/09/2019,14:47:15,TEMP=27.3,BA=5.64,STAT.A=9.0,ExtBa=14.01
27/09/2019,15:02:24,TEMP=27.3,BA=5.64,STAT.A=9.0,ExtBa=13.98
27/09/2019,15:14:39,TEMP=27.0,BA=5.64,STAT.A=9.0,ExtBa=13.96
27/09/2019,15:24:50,TEMP=26.8,BA=5.64,STAT.A=9.0,ExtBa=13.94
27/09/2019,15:33:25,TEMP=26.7,BA=5.64,STAT.C=9.0,ExtBa=13.91
27/09/2019,15:40:48,TEMP=26.6,BA=5.64,STAT.A=9.0,ExtBa=13.89
27/09/2019,15:47:13,TEMP=26.5,BA=5.64,STAT.A=9.0,ExtBa=13.86
27/09/2019,15:52:51,TEMP=26.4,BA=5.64,STAT.A=9.0,ExtBa=13.76
27/09/2019,15:57:51,TEMP=26.2,BA=5.64,STAT.A=9.0,ExtBa=13.79
27/09/2019,16:02:18,TEMP=26.0,BA=5.60,STAT.B=9.0,ExtBa=13.77
27/09/2019,16:11:36,TEMP=25.7,BA=5.64,STAT.A=9.0,ExtBa=13.71
27/09/2019,16:18:57,TEMP=25.5,BA=5.64,STAT.A=9.0,ExtBa=13.65
27/09/2019,16:24:54,TEMP=25.3,BA=5.52,STAT.A=9.0,ExtBa=13.59
27/09/2019,16:29:50,TEMP=25.1,BA=5.52,STAT.A=9.0,ExtBa=13.53
27/09/2019,16:33:59,TEMP=25.0,BA=5.52,STAT.A=9.0,ExtBa=13.46
27/09/2019,16:37:31,TEMP=24.9,BA=5.52,STAT.A=9.0,ExtBa=13.38